Year,Month,Day,Hour,Minute,Value (Times are PST for windgust in km/hr)
2017,04,03,00,08,1.60
2017,04,03,00,09,1.60
2017,04,03,00,10,3.20
2017,04,03,00,11,3.20
2017,04,03,00,12,3.20
2017,04,03,00,13,3.20
2017,04,03,00,14,1.60
2017,04,03,00,16,3.20
2017,04,03,00,17,1.60
2017,04,03,00,21,3.20
2017,04,03,00,22,3.20
2017,04,03,00,23,3.20
2017,04,03,00,24,3.20
2017,04,03,00,25,1.60
2017,04,03,00,26,3.20
2017,04,03,00,27,1.60
2017,04,03,00,46,1.60
2017,04,03,00,47,1.60
2017,04,03,00,49,1.60
2017,04,03,00,50,1.60
2017,04,03,00,51,1.60
2017,04,03,00,53,3.20
2017,04,03,00,54,1.60
2017,04,03,00,57,1.60
2017,04,03,00,58,1.60
2017,04,03,00,59,1.60
2017,04,03,01,16,1.60
2017,04,03,01,17,1.60
2017,04,03,01,18,1.60
2017,04,03,01,19,1.60
2017,04,03,01,30,3.20
2017,04,03,01,31,3.20
2017,04,03,01,32,1.60
2017,04,03,01,34,1.60
2017,04,03,01,35,3.20
2017,04,03,01,36,1.60
2017,04,03,02,13,3.20
2017,04,03,02,14,4.80
2017,04,03,02,15,3.20
2017,04,03,02,16,3.20
2017,04,03,02,17,1.60
2017,04,03,02,18,1.60
2017,04,03,02,19,3.20
2017,04,03,02,20,1.60
2017,04,03,02,21,1.60
2017,04,03,02,26,3.20
2017,04,03,02,27,3.20
2017,04,03,02,28,3.20
2017,04,03,02,38,1.60
2017,04,03,02,39,1.60
2017,04,03,02,40,1.60
2017,04,03,02,46,1.60
2017,04,03,02,47,1.60
2017,04,03,02,48,1.60
2017,04,03,02,49,1.60
2017,04,03,02,50,1.60
2017,04,03,02,51,3.20
2017,04,03,02,52,1.60
2017,04,03,03,01,3.20
2017,04,03,03,02,3.20
2017,04,03,03,03,3.20
2017,04,03,03,04,1.60
2017,04,03,03,06,3.20
2017,04,03,03,07,3.20
2017,04,03,03,08,3.20
2017,04,03,03,09,3.20
2017,04,03,03,10,1.60
2017,04,03,03,11,3.20
2017,04,03,03,12,3.20
2017,04,03,03,13,3.20
2017,04,03,03,14,3.20
2017,04,03,03,15,4.80
2017,04,03,03,16,3.20
2017,04,03,03,17,3.20
2017,04,03,03,18,3.20
2017,04,03,03,19,1.60
2017,04,03,03,20,1.60
2017,04,03,04,42,1.60
2017,04,03,04,43,3.20
2017,04,03,04,50,1.60
2017,04,03,04,51,4.80
2017,04,03,04,52,3.20
2017,04,03,04,53,3.20
2017,04,03,04,54,3.20
2017,04,03,04,55,1.60
2017,04,03,04,56,1.60
2017,04,03,04,57,1.60
2017,04,03,04,58,1.60
2017,04,03,04,59,3.20
2017,04,03,05,00,1.60
2017,04,03,05,01,1.60
2017,04,03,05,02,1.60
2017,04,03,05,03,1.60
2017,04,03,05,04,3.20
2017,04,03,05,05,3.20
2017,04,03,05,07,1.60
2017,04,03,05,08,3.20
2017,04,03,05,09,3.20
2017,04,03,05,11,1.60
2017,04,03,05,12,1.60
2017,04,03,05,14,1.60
2017,04,03,15,21,11.30
2017,04,03,15,22,17.70
2017,04,03,15,23,17.70
2017,04,03,15,24,19.30
2017,04,03,15,25,19.30
2017,04,03,15,26,17.70
2017,04,03,15,27,8.10
2017,04,03,15,28,9.60
2017,04,03,15,29,9.60
2017,04,03,15,30,16.10
2017,04,03,15,31,16.10
2017,04,03,15,32,14.50
2017,04,03,15,33,14.50
2017,04,03,15,34,17.70
2017,04,03,15,35,9.60
2017,04,03,15,36,11.30
2017,04,03,15,37,12.90
2017,04,03,15,38,11.30
2017,04,03,15,39,16.10
2017,04,03,15,40,20.90
2017,04,03,15,41,17.70
2017,04,03,15,42,12.90
2017,04,03,15,43,17.70
2017,04,03,15,44,14.50
2017,04,03,15,45,17.70
2017,04,03,15,46,12.90
2017,04,03,15,47,17.70
2017,04,03,15,48,14.50
2017,04,03,15,49,17.70
2017,04,03,15,50,12.90
2017,04,03,15,51,16.10
2017,04,03,15,52,16.10
2017,04,03,15,53,16.10
2017,04,03,15,54,17.70
2017,04,03,15,55,14.50
2017,04,03,15,56,9.60
2017,04,03,15,57,22.50
2017,04,03,15,58,17.70
2017,04,03,15,59,19.30
2017,04,03,16,00,14.50
2017,04,03,16,01,14.50
2017,04,03,16,02,16.10
2017,04,03,16,03,19.30
2017,04,03,16,04,12.90
2017,04,03,16,05,19.30
2017,04,03,16,06,22.50
2017,04,03,16,07,19.30
2017,04,03,16,08,16.10
2017,04,03,16,09,17.70
2017,04,03,16,10,11.30
2017,04,03,16,11,14.50
2017,04,03,16,12,12.90
2017,04,03,16,13,16.10
2017,04,03,16,14,16.10
2017,04,03,16,15,17.70
2017,04,03,16,16,12.90
2017,04,03,16,17,14.50
2017,04,03,16,18,11.30
2017,04,03,16,19,16.10
2017,04,03,16,20,12.90
2017,04,03,16,21,11.30
2017,04,03,16,22,16.10
2017,04,03,16,23,16.10
2017,04,03,16,24,11.30
2017,04,03,16,25,12.90
2017,04,03,16,26,11.30
2017,04,03,16,27,14.50
2017,04,03,16,28,17.70
2017,04,03,16,29,17.70
2017,04,03,16,30,16.10
2017,04,03,16,31,12.90
2017,04,03,16,32,17.70
2017,04,03,16,33,17.70
2017,04,03,16,34,16.10
2017,04,03,16,35,17.70
2017,04,03,16,36,19.30
2017,04,03,16,37,19.30
2017,04,03,16,38,16.10
2017,04,03,16,39,12.90
2017,04,03,16,40,9.60
2017,04,03,16,41,14.50
2017,04,03,16,42,11.30
2017,04,03,16,43,14.50
2017,04,03,16,44,12.90
2017,04,03,16,45,12.90
2017,04,03,16,46,12.90
2017,04,03,16,47,16.10
2017,04,03,16,48,17.70
2017,04,03,16,49,17.70
2017,04,03,16,50,12.90
2017,04,03,16,51,11.30
2017,04,03,16,52,12.90
2017,04,03,16,53,12.90
2017,04,03,16,54,9.60
2017,04,03,16,55,17.70
2017,04,03,16,56,19.30
2017,04,03,16,57,14.50
2017,04,03,16,58,8.10
2017,04,03,16,59,12.90
2017,04,03,17,00,11.30
2017,04,03,17,01,14.50
2017,04,03,17,02,11.30
2017,04,03,17,03,11.30
2017,04,03,17,04,11.30
2017,04,03,17,05,11.30
2017,04,03,17,06,12.90
2017,04,03,17,07,17.70
2017,04,03,17,08,14.50
2017,04,03,17,09,12.90
2017,04,03,17,10,16.10
2017,04,03,17,11,17.70
2017,04,03,17,12,22.50
2017,04,03,17,13,16.10
2017,04,03,17,14,17.70
2017,04,03,17,15,20.90
2017,04,03,17,16,19.30
2017,04,03,17,17,19.30
2017,04,03,17,18,17.70
2017,04,03,17,19,16.10
2017,04,03,17,20,14.50
2017,04,03,17,21,14.50
2017,04,03,17,22,17.70
2017,04,03,17,23,16.10
2017,04,03,17,24,19.30
2017,04,03,17,25,16.10
2017,04,03,17,26,20.90
2017,04,03,17,27,12.90
2017,04,03,17,28,16.10
2017,04,03,17,29,11.30
2017,04,03,17,30,11.30
2017,04,03,17,31,9.60
2017,04,03,17,32,12.90
2017,04,03,17,33,9.60
2017,04,03,17,34,11.30
2017,04,03,17,35,17.70
2017,04,03,17,36,14.50
2017,04,03,17,37,14.50
2017,04,03,17,38,14.50
2017,04,03,17,39,12.90
2017,04,03,17,40,12.90
2017,04,03,17,41,9.60
2017,04,03,17,42,14.50
2017,04,03,17,43,16.10
2017,04,03,17,44,17.70
2017,04,03,17,45,12.90
2017,04,03,17,46,16.10
2017,04,03,17,47,19.30
2017,04,03,17,48,14.50
2017,04,03,17,49,14.50
2017,04,03,17,50,12.90
2017,04,03,17,51,14.50
2017,04,03,17,52,12.90
2017,04,03,17,53,14.50
2017,04,03,17,54,14.50
2017,04,03,17,55,11.30
2017,04,03,17,56,11.30
2017,04,03,17,57,11.30
2017,04,03,17,58,14.50
2017,04,03,17,59,11.30
2017,04,03,18,00,14.50
2017,04,03,18,01,14.50
2017,04,03,18,02,12.90
2017,04,03,18,03,11.30
2017,04,03,18,04,11.30
2017,04,03,18,05,12.90
2017,04,03,18,06,12.90
2017,04,03,18,07,14.50
2017,04,03,18,08,9.60
2017,04,03,18,09,14.50
2017,04,03,18,10,11.30
2017,04,03,18,11,11.30
2017,04,03,18,12,12.90
2017,04,03,18,13,11.30
2017,04,03,18,14,9.60
2017,04,03,18,15,12.90
2017,04,03,18,16,12.90
2017,04,03,18,17,14.50
2017,04,03,18,18,8.10
2017,04,03,18,19,8.10
2017,04,03,18,20,9.60
2017,04,03,18,21,6.40
2017,04,03,18,22,6.40
2017,04,03,18,23,4.80
2017,04,03,18,24,8.10
2017,04,03,18,25,6.40
2017,04,03,18,26,6.40
2017,04,03,18,27,6.40
2017,04,03,18,28,8.10
2017,04,03,18,29,8.10
2017,04,03,18,30,9.60
2017,04,03,18,31,14.50
2017,04,03,18,32,8.10
2017,04,03,18,33,12.90
2017,04,03,18,34,8.10
2017,04,03,18,35,11.30
2017,04,03,18,36,12.90
2017,04,03,18,37,11.30
2017,04,03,18,38,12.90
2017,04,03,18,39,14.50
2017,04,03,18,40,11.30
2017,04,03,18,41,12.90
2017,04,03,18,42,14.50
2017,04,03,18,43,14.50
2017,04,03,18,44,9.60
2017,04,03,18,45,12.90
2017,04,03,18,46,11.30
2017,04,03,18,47,9.60
2017,04,03,18,48,9.60
2017,04,03,18,49,4.80
2017,04,03,18,50,11.30
2017,04,03,18,51,9.60
2017,04,03,18,52,6.40
2017,04,03,18,53,6.40
2017,04,03,18,54,9.60
2017,04,03,18,55,9.60
2017,04,03,18,56,6.40
2017,04,03,18,57,6.40
2017,04,03,18,58,6.40
2017,04,03,18,59,3.20
2017,04,03,19,00,3.20
2017,04,03,19,01,6.40
2017,04,03,19,02,4.80
2017,04,03,19,03,4.80
2017,04,03,19,04,4.80
2017,04,03,19,05,4.80
2017,04,03,19,06,3.20
2017,04,03,19,07,1.60
2017,04,03,19,08,3.20
2017,04,03,19,09,1.60
2017,04,03,19,11,3.20
2017,04,03,19,12,3.20
2017,04,03,19,13,1.60
2017,04,03,19,49,1.60
2017,04,03,19,55,1.60
2017,04,03,19,56,1.60
2017,04,03,19,57,1.60
2017,04,03,19,58,11.30
2017,04,03,19,59,8.10
2017,04,03,20,00,4.80
2017,04,03,20,01,6.40
2017,04,03,20,02,4.80
2017,04,03,20,03,8.10
2017,04,03,20,04,4.80
2017,04,03,20,05,4.80
2017,04,03,20,06,6.40
2017,04,03,20,07,3.20
2017,04,03,20,08,6.40
2017,04,03,20,09,3.20
2017,04,03,20,10,3.20
2017,04,03,20,11,1.60
2017,04,03,20,12,3.20
2017,04,03,20,13,3.20
2017,04,03,20,14,3.20
2017,04,03,20,15,4.80
2017,04,03,20,16,6.40
2017,04,03,20,17,3.20
2017,04,03,20,18,6.40
2017,04,03,20,19,1.60
